• Em Portugal
  • Lista de países
  • Para 7 dias
  • Temperatura da água
  • Mapas de satélite
  • Mapa do tempo
  • Widgets de tempo
  • user-avatar
    Iniciar Sessão

    Previsão horária em Zhmerynka

    Hoje, 23 Setembro, Domingo

    Tempo Temperatura Precipitação Vento Pressão Humidade
    00:00 +8°C° 0 mm 4 m/s 736 mmHg 86%
    01:00 +9°C° 0 mm 3 m/s 736 mmHg 87%
    02:00 +9°C° 0 mm 3 m/s 736 mmHg 87%
    03:00 +8°C° 0 mm 3 m/s 736 mmHg 88%
    04:00 +8°C° 0 mm 3 m/s 736 mmHg 88%
    05:00 +8°C° 0 mm 2 m/s 736 mmHg 89%
    06:00 +8°C° 0 mm 3 m/s 736 mmHg 85%
    07:00 +9°C° 0 mm 3 m/s 736 mmHg 80%
    08:00 +10°C° 0 mm 3 m/s 736 mmHg 76%
    09:00 +12°C° 0 mm 3 m/s 736 mmHg 68%
    10:00 +14°C° 0 mm 4 m/s 736 mmHg 59%
    11:00 +17°C° 0 mm 4 m/s 736 mmHg 51%
    12:00 +17°C° 0 mm 4 m/s 736 mmHg 49%
    13:00 +18°C° 0 mm 4 m/s 736 mmHg 46%
    14:00 +19°C° 0 mm 4 m/s 736 mmHg 44%
    15:00 +18°C° 0 mm 3 m/s 736 mmHg 47%
    16:00 +18°C° 0 mm 3 m/s 735 mmHg 50%
    17:00 +17°C° 0 mm 2 m/s 735 mmHg 52%
    18:00 +16°C° 0 mm 2 m/s 735 mmHg 54%
    19:00 +15°C° 0 mm 2 m/s 735 mmHg 56%
    20:00 +13°C° 0 mm 2 m/s 734 mmHg 58%
    21:00 +13°C° 0 mm 3 m/s 734 mmHg 55%
    22:00 +13°C° 0 mm 4 m/s 733 mmHg 52%
    23:00 +13°C° 0 mm 4 m/s 733 mmHg 49%

    Amanhã, 24 Setembro, Segunda-feira

    Tempo Temperatura Precipitação Vento Pressão Humidade
    00:00 +13°C° 0 mm 5 m/s 732 mmHg 48%
    01:00 +14°C° 0 mm 6 m/s 731 mmHg 47%
    02:00 +14°C° 0 mm 7 m/s 730 mmHg 46%
    03:00 +14°C° 0 mm 7 m/s 729 mmHg 50%
    04:00 +13°C° 0 mm 8 m/s 728 mmHg 54%
    05:00 +13°C° 0 mm 8 m/s 727 mmHg 57%
    06:00 +13°C° 1.2 mm 8 m/s 727 mmHg 66%
    07:00 +13°C° 1.2 mm 8 m/s 726 mmHg 76%
    08:00 +13°C° 1.2 mm 8 m/s 726 mmHg 85%
    09:00 +15°C° 2.1 mm 8 m/s 726 mmHg 86%
    10:00 +15°C° 2.1 mm 8 m/s 726 mmHg 87%
    11:00 +15°C° 2.1 mm 8 m/s 726 mmHg 88%
    12:00 +13°C° 0.5 mm 8 m/s 727 mmHg 85%
    13:00 +12°C° 0.5 mm 9 m/s 728 mmHg 82%
    14:00 +10°C° 0.5 mm 9 m/s 729 mmHg 79%
    15:00 +10°C° 0.1 mm 8 m/s 729 mmHg 76%
    16:00 +10°C° 0.1 mm 8 m/s 730 mmHg 73%
    17:00 +10°C° 0.1 mm 7 m/s 731 mmHg 70%
    18:00 +10°C° 0 mm 7 m/s 731 mmHg 70%
    19:00 +9°C° 0 mm 7 m/s 732 mmHg 71%
    20:00 +9°C° 0 mm 7 m/s 732 mmHg 72%
    21:00 +8°C° 0 mm 7 m/s 732 mmHg 72%
    22:00 +6°C° 0 mm 7 m/s 733 mmHg 71%
    23:00 +6°C° 0 mm 7 m/s 733 mmHg 71%

    Depois de amanhã, 25 Setembro, Terça-feira

    Tempo Temperatura Precipitação Vento Pressão Humidade
    00:00 +5°C° 0 mm 6 m/s 733 mmHg 71%
    01:00 +5°C° 0 mm 6 m/s 734 mmHg 71%
    02:00 +5°C° 0 mm 6 m/s 734 mmHg 70%
    03:00 +4°C° 0 mm 6 m/s 734 mmHg 72%
    04:00 +4°C° 0 mm 6 m/s 734 mmHg 73%
    05:00 +4°C° 0 mm 6 m/s 734 mmHg 75%
    06:00 +4°C° 0.2 mm 6 m/s 735 mmHg 76%
    07:00 +5°C° 0.2 mm 7 m/s 735 mmHg 78%
    08:00 +5°C° 0.2 mm 8 m/s 736 mmHg 79%
    09:00 +6°C° 0.3 mm 8 m/s 737 mmHg 76%
    10:00 +6°C° 0.3 mm 8 m/s 737 mmHg 72%
    11:00 +6°C° 0.3 mm 9 m/s 738 mmHg 69%
    12:00 +7°C° 0 mm 9 m/s 738 mmHg 62%
    13:00 +9°C° 0 mm 8 m/s 739 mmHg 56%
    14:00 +10°C° 0 mm 8 m/s 739 mmHg 49%
    15:00 +9°C° 0 mm 8 m/s 740 mmHg 51%
    16:00 +9°C° 0 mm 7 m/s 740 mmHg 53%
    17:00 +8°C° 0 mm 7 m/s 740 mmHg 55%
    18:00 +7°C° 0 mm 6 m/s 741 mmHg 59%
    19:00 +5°C° 0 mm 6 m/s 741 mmHg 64%
    20:00 +5°C° 0 mm 5 m/s 742 mmHg 68%
    21:00 +5°C° 0 mm 5 m/s 742 mmHg 70%
    22:00 +5°C° 0 mm 5 m/s 743 mmHg 73%
    23:00 +3°C° 0 mm 5 m/s 743 mmHg 75%

    26 Setembro, Quarta-feira

    Tempo Temperatura Precipitação Vento Pressão Humidade
    00:00 +3°C° 0 mm 5 m/s 743 mmHg 76%
    01:00 +3°C° 0 mm 5 m/s 744 mmHg 78%
    02:00 +2°C° 0 mm 5 m/s 744 mmHg 80%
    03:00 +2°C° 0 mm 5 m/s 745 mmHg 82%
    04:00 +2°C° 0 mm 5 m/s 745 mmHg 84%
    05:00 +1°C° 0 mm 5 m/s 745 mmHg 86%
    06:00 +2°C° 0 mm 5 m/s 746 mmHg 82%
    07:00 +3°C° 0 mm 5 m/s 746 mmHg 79%
    08:00 +3°C° 0 mm 5 m/s 747 mmHg 75%
    09:00 +6°C° 0 mm 5 m/s 747 mmHg 67%
    10:00 +8°C° 0 mm 5 m/s 747 mmHg 58%
    11:00 +9°C° 0 mm 5 m/s 747 mmHg 50%
    12:00 +10°C° 0 mm 5 m/s 747 mmHg 48%
    13:00 +11°C° 0 mm 4 m/s 747 mmHg 45%
    14:00 +12°C° 0 mm 4 m/s 747 mmHg 43%
    15:00 +11°C° 0 mm 3 m/s 746 mmHg 46%
    16:00 +11°C° 0 mm 3 m/s 746 mmHg 49%
    17:00 +12°C° 0 mm 2 m/s 746 mmHg 52%
    18:00 +9°C° 0 mm 2 m/s 746 mmHg 55%
    19:00 +8°C° 0 mm 2 m/s 746 mmHg 58%
    20:00 +6°C° 0 mm 2 m/s 745 mmHg 61%
    21:00 +6°C° 0 mm 2 m/s 745 mmHg 62%
    22:00 +6°C° 0 mm 2 m/s 745 mmHg 63%
    23:00 +6°C° 0 mm 2 m/s 745 mmHg 64%

    27 Setembro, Quinta-feira

    Tempo Temperatura Precipitação Vento Pressão Humidade
    00:00 +5°C° 0 mm 3 m/s 744 mmHg 62%
    01:00 +5°C° 0 mm 3 m/s 744 mmHg 60%
    02:00 +6°C° 0 mm 4 m/s 744 mmHg 58%
    03:00 +5°C° 0 mm 4 m/s 743 mmHg 59%
    04:00 +5°C° 0 mm 4 m/s 743 mmHg 59%
    05:00 +5°C° 0 mm 4 m/s 742 mmHg 60%
    06:00 +6°C° 0 mm 4 m/s 742 mmHg 58%
    07:00 +7°C° 0 mm 5 m/s 742 mmHg 55%
    08:00 +7°C° 0 mm 5 m/s 741 mmHg 53%
    09:00 +9°C° 0 mm 5 m/s 741 mmHg 49%
    10:00 +11°C° 0 mm 6 m/s 741 mmHg 45%
    11:00 +14°C° 0 mm 6 m/s 741 mmHg 41%
    12:00 +15°C° 0 mm 6 m/s 740 mmHg 39%
    13:00 +16°C° 0 mm 6 m/s 740 mmHg 37%
    14:00 +17°C° 0 mm 6 m/s 739 mmHg 35%
    15:00 +16°C° 0 mm 5 m/s 739 mmHg 39%
    16:00 +16°C° 0 mm 5 m/s 738 mmHg 42%
    17:00 +15°C° 0 mm 4 m/s 738 mmHg 46%
    18:00 +14°C° 0 mm 4 m/s 738 mmHg 48%
    19:00 +13°C° 0 mm 4 m/s 738 mmHg 49%
    20:00 +12°C° 0 mm 3 m/s 738 mmHg 51%
    21:00 +11°C° 0 mm 3 m/s 738 mmHg 52%
    22:00 +11°C° 0 mm 3 m/s 737 mmHg 54%
    23:00 +11°C° 0 mm 3 m/s 737 mmHg 55%

    28 Setembro, Sexta-feira

    Tempo Temperatura Precipitação Vento Pressão Humidade
    00:00 +10°C° 0 mm 3 m/s 737 mmHg 55%
    01:00 +10°C° 0 mm 3 m/s 737 mmHg 56%
    02:00 +10°C° 0 mm 3 m/s 737 mmHg 57%
    03:00 +9°C° 0 mm 3 m/s 736 mmHg 58%
    04:00 +9°C° 0 mm 3 m/s 736 mmHg 59%
    05:00 +9°C° 0 mm 3 m/s 736 mmHg 60%
    06:00 +10°C° 0 mm 3 m/s 736 mmHg 58%
    07:00 +11°C° 0 mm 4 m/s 736 mmHg 57%
    08:00 +12°C° 0 mm 4 m/s 736 mmHg 56%
    09:00 +14°C° 0 mm 4 m/s 736 mmHg 53%
    10:00 +16°C° 0 mm 5 m/s 736 mmHg 50%
    11:00 +19°C° 0 mm 5 m/s 736 mmHg 47%
    12:00 +19°C° 0 mm 6 m/s 735 mmHg 47%
    13:00 +20°C° 0 mm 6 m/s 735 mmHg 46%
    14:00 +21°C° 0 mm 6 m/s 735 mmHg 46%
    15:00 +20°C° 0 mm 5 m/s 735 mmHg 51%
    16:00 +19°C° 0 mm 5 m/s 735 mmHg 57%
    17:00 +18°C° 0 mm 4 m/s 735 mmHg 63%
    18:00 +15°C° 0 mm 4 m/s 735 mmHg 70%
    19:00 +14°C° 0 mm 4 m/s 736 mmHg 77%
    20:00 +12°C° 0 mm 4 m/s 736 mmHg 85%
    21:00 +11°C° 0 mm 3 m/s 736 mmHg 83%
    22:00 +11°C° 0 mm 3 m/s 737 mmHg 81%
    23:00 +10°C° 0 mm 3 m/s 737 mmHg 79%
    Mostrar mais